Погода в Константиновске

Погода в Константиновске : погода сейчас, прогноз погоды и архив. Всё, что Вы хотите узнать о погоде в Константиновске!

Поиск расширенной информации на нашем сайте:

Другие новости

Новости СМИ2

Главная страница сайта

Новости сайта

02.10.2013

Напоминаем, что на нашем новом сайте вы можете получить высокодетализированные прогнозы погоды по пунктам России, СНГ и мира (включающие важные для авиации метеовеличины, такие как направление и скорость ветра, видимость, явления погоды, количество и форма облачности, нижняя и верхняя граница облачности), а также ознакомиться с разнообразными материалами по авиационной метеорологии и подборкой полезных ссылок на эту тему.

Сайт Метеоцентр.Азия посвящён разработке технологий оптимизации авиаметеорологического обслуживания, включая проектирование и перспективное создание нескольких автоматизированных авиаметеорологических систем:
- система выпуска высокодетальных прогностических карт явлений погоды для нижнего воздушного пространства по России и ближнему зарубежью;
- система верификации прогнозов TAF (выпускаемых синоптиками официальных АМСГ РФ и ближнего зарубежья) и AUTOTAF (выпускаемых сайтом Метеоцентр.Азия) - выявление ошибок, онлайн-сопоставление с фактической погодой METAR, автоматическое внесение коррективов в прогнозы при резком отклонении фактической погоды от прогноза, подсчёт оправдываемости прогнозов по элементам и в целом;
- система обработки, анализа и отображения авиаметеорологической информации для применения провайдерами метеорологической информации.

Рекомендуем: Велоаксессуары в краснодаре велосипеды купить в краснодаре.

Погода в Константиновске - сегодня

Время (UTC), дата Ветер
(°,м/с) 
Видим.   Явления Облачность Т
(°С)
Тd
(°С)
f(%) Тe
(°С)
Pmin
(гПа)
dP
(гПа)
Po
(мм)
O2
(г/м3)
Тmin Tmax R s Состояние
почвы
03 25.06.17 060 (СВ) 10 км    8/3 600 м средняя 
[Cu Sc|Ac trans]
+15 +11.1 77 +19  1012.2  1.4  754  286  +13.2    0.5    влажная 
06 25.06.17 150 (ЮВ) 10 км    6/0 средняя 
[Ac trans]
+20.3 +9.1 49 +20  1013.6  1.5  755  282           
09 25.06.17 150 (ЮВ) 10 км    ясно 
+23.4 +7.4 36 +23  1013.9  0.4  755  279           
12 25.06.17 260 (З) 10 км    8/6 600 м средняя 
[Cu hum|As trans]
+25.4 +9.1 36 +25  1013.8  -0.1  755  277           
15 25.06.17 230 (ЮЗ) 10 км    9/6 600 м средняя 
[Cu Sc|Ac trans]
+24 +13.3 51 +30  1014.1  0.3  755  277    +25.7       
18 25.06.17 190 (Ю) 10 км    8/6 600 м средняя 
[Cu Sc|Ac trans]
+21.5 +13.8 62 +28  1014.8  0.7  756  280           
21 25.06.17 190 (Ю) 10 км    8/0 средняя 
[Ac trans]
+20.1 +15.2 73 +29  1015.5  0.6  756  281           
00 26.06.17 240 (ЮЗ) 10 км    8/0 средняя 
[Ac trans]
+18.3 +15.1 82 +29  1015.3  -0.2  756  282           
03 26.06.17 тихо ()   10 км    ясно 
+18.2 +15.3 83 +27  1015.5  0.2  756  282  +16.5        сухая 
06 26.06.17 240 (ЮЗ) 10 км    ясно 
+24.1 +17.7 67 +38  1016  0.6  757  276           
09 26.06.17 270 (З) 10 км    6/6 600 м 
[Cu med, cong]
+27.4 +14.3 45 +35  1015.3  -0.6  756  274           
12 26.06.17 270 (З) 10 км    8/8 600 м 
[Cu med, cong]
+29 +13.4 38 +35  1014.5  -0.8  756  273           
15 26.06.17 210 (ЮЗ) 10 км    6/6 600 м 
[Cu med, cong]
+29.5 +13.9 39 +36  1013.7  -0.7  755  272    +30       
18 26.06.17 150 (ЮВ) 10 км    ясно 
+21.7 +16.8 74 +33  1013.6  -0.3  755  278           
21 26.06.17 тихо ()   10 км    ясно 
+18.7 +15.7 83 +28  1013.6  -0.1  755  281           
00 27.06.17 010 (С) 4000 м  дымка  ясно 
+16.7 +15 90 +27  1013.5  -0.1  755  283           
03 27.06.17 110 (В) 10 км    ясно 
+20.2 +16.6 80 +32  1013.7  0.3  755  280  +16.4        сухая 
06 27.06.17 150 (ЮВ) 10 км    ясно 
+26.3 +17 57 +38  1013.2  -0.4  755  274           
09 27.06.17 140 (ЮВ) 10 км    3/3 1000 м 
[Cu hum]
+30 +12.4 34 +34  1012.7  -0.4  754  272           
12 27.06.17 110 (В) 10 км    3/3 1000 м 
[Cu hum]
+31.8 +11.5 29 +35  1011.4  -1.3  753  270           
15 27.06.17 110 (В) 10 км    3/0 верхняя 
[Ci fib]
+31.1 +10.9 29 +33  1010.5  -0.9  753  270    +32.2       
18 27.06.17 130 (ЮВ) 10 км    4/0 верхняя 
[Ci fib]
+22.9 +14.5 59 +31  1011.4  0.8  753  277           
21 27.06.17 090 (В) 10 км    ясно 
+19.1 +13.1 68 +26  1011.2  -0.3  753  281           
00 28.06.17 060 (СВ) 10 км    ясно 
+19 +12.4 66 +24  1011  -0.3  753  281           
03 28.06.17 020 (С) 10 км    ясно 
+20.2 +13.6 66 +26  1011.4  0.5  753  280  +16        сухая 
Время (UTC), дата Ветер
(°,м/с) 
Видим.   Явления Облачность Т
(°С)
Тd
(°С)
f(%) Тe
(°С)
Pmin
(гПа)
dP
(гПа)
Po
(мм)
O2
(г/м3)
Тmin Tmax R s Состояние
почвы

Для получения пояснительной информации подведите курсор к названию столбца.

ПОГОДА в Константиновске - архив

Всё, что Вы хотите узнать о погоде в Константиновске - удобно и подробно!

Выберите нужную дату (начиная с 1 января 2015* года) и нажмите кнопку "Найти".
Будут отображены архивные сводки погоды по пункту Константиновск, начиная с указанной даты.


Отображать данные в формате CSV (для использования в таблицах Excel)


Внимание! Наш архив погоды предназначен исключительно для личного некоммерческого использования в познавательных целях. Если Вам необходимы официальные справки о состоянии погоды (для производственных, юридических, коммерческих и т.п. целей), обращайтесь в органы Росгидромета.

*Примечание: данная дата относится к архиву по метеостанциям СССР (Россия, СНГ, Балтия).
Архив по метеостанциям Зарубежной Европы и Азии (кроме Китая) хранится 10 дней, по другим регионам земного шара (Китай, Африка, Америка, Австралия, Океания) - 1 день.

Константиновск - район местоположения метеостанции


Название, широта, долгота, высота метеостанции:
Константиновск 47.6°ш. 41.1°д. 66 м над ур. моря [Российская Федерация]

Дополнительная информация

В oтличие oт бoльшинства пoгoдных сайтoв мы публикуем пoдрoбную метеoинфoрмацию в детальнoм прoфессиoнальнoм фoрмате.

Характеристики температуры и влажнoсти вoздуха измеряются на высoте 2 м в тени вдали oт зданий и деревьев.
Скoрoсть ветра измеряется на высoте 10 м (на урoвне рoста челoвека скoрoсть ветра ниже в 1.5-2 раза). Если метеoстанция нахoдится в гoрoде или в лесу, тo скoрoсть ветра занижена на 2-4 м/с пo сравнению с oткрытым местoм. Скoрoсть ветра над акватoриями крупных рек и oзёр, а также на вершинах хoлмoв на 2-5 м/с выше, чем в oбычных услoвиях.
Атмoсфернoе давление в разных тoчках местнoсти мoжет значительнo oтличаться oт давления на метеoстанции, в зависимoсти oт услoвий рельефа (при пoдъёме на 10 м давление пoнижается примернo на 1 мм рт.ст.).